Location: ????????
(55.3939°N, 37.4780°E)
Time: 19:34:33
(UTC+00:00)

Cosmos 1933 - Pass Details

Date: 14 April 2026
Orbit: 508 x 512 km, 82.5° (Epoch: 19 May)

Event Time Altitude Azimuth Distance (km) Brightness Sun altitude
Exits shadow 23:39:59 37° 277° (W) 815 3.9 -19.5°
Maximum altitude 23:40:18 37° 289° (WNW) 805 4.0 -19.5°
Drops below altitude 10° 23:43:52 10° 359° (N) 1,742 6.6 -19.2°
Sets 23:46:08 0° 8° (N) 2,633 7.9 -19.0°
